GFSSGP_925_rhum_000.txt.gz
RH
6 7 11 15 18 21 20 12 11 13 21 48 53 54 63 64 68 82 75 71 67 63 45 43 52 68 78 82 89 83 86 87 84 83 81 75 66 59 54 50 55 51 44 47 50 48 70 62 66
10 11 9 18 23 24 20 13 12 11 38 41 44 60 70 88 75 80 74 70 68 66 50 39 43 50 61 68 74 78 78 70 68 78 77 79 78 75 71 69 65 60 52 59 60 56 60 48 44
13 15 11 19 24 23 17 13 10 21 42 25 55 59 67 72 74 73 66 70 70 66 55 49 43 40 37 39 46 50 58 66 68 69 73 79 80 77 77 76 70 57 64 77 75 66 67 57 55
13 11 13 15 13 12 11 14 13 14 45 51 57 73 65 56 60 62 65 67 72 65 58 50 43 39 37 37 39 42 44 45 50 58 68 76 81 82 85 88 78 71 67 69 87 69 74 58 49
14 14 16 13 11 10 9 11 19 43 50 53 50 60 72 57 60 62 64 67 71 62 56 54 52 51 50 49 48 49 53 53 59 63 65 77 77 78 76 68 80 77 69 73 78 77 82 76 64
12 13 16 16 12 9 8 11 16 29 47 48 56 64 60 55 60 64 66 68 62 56 59 57 58 55 50 50 52 52 53 54 56 60 60 57 66 72 77 84 86 88 79 67 59 58 78 78 66
12 14 15 11 12 9 7 8 12 11 11 30 45 62 68 57 49 57 62 64 62 64 68 68 71 67 62 48 45 49 54 58 61 63 68 68 64 66 70 76 83 83 74 68 65 67 70 82 84
12 13 11 11 11 8 7 8 12 10 9 38 40 55 48 55 54 51 56 62 68 72 74 76 77 76 68 56 58 52 51 61 61 62 63 67 72 72 66 67 66 70 78 81 82 87 92 89 87
10 16 16 14 11 10 10 10 10 9 10 14 28 42 40 51 53 50 53 62 67 72 80 80 79 78 73 65 67 68 65 65 69 63 67 76 79 75 76 72 70 68 66 69 75 78 80 82 80
13 17 13 12 11 11 12 11 9 8 16 19 44 41 40 50 48 49 49 55 57 71 66 57 65 77 76 74 67 72 69 70 74 73 76 81 83 78 81 76 74 70 63 60 64 63 62 70 74
12 17 14 14 12 12 14 14 12 11 14 18 49 42 50 53 46 45 51 49 47 42 39 37 35 37 64 62 65 75 70 73 78 79 77 78 83 76 79 82 82 80 70 68 67 61 63 65 64
15 14 14 13 12 13 15 14 15 13 12 15 32 48 52 55 55 50 41 47 39 37 36 36 33 47 65 64 74 76 74 80 79 76 79 71 67 58 62 74 74 78 71 75 77 84 84 81 80
15 14 14 14 14 14 14 14 15 14 12 16 25 29 36 42 40 38 36 37 34 33 33 36 30 33 61 62 69 67 72 75 75 66 64 62 68 69 68 69 71 75 77 76 75 81 97 100 99
18 16 17 16 16 16 16 17 15 16 14 16 24 26 26 26 24 26 28 28 29 29 31 30 30 30 41 58 57 54 53 52 49 50 49 56 67 69 73 80 80 72 65 60 48 44 45 44 51
16 19 19 19 16 16 13 12 15 13 15 18 21 26 26 24 21 23 20 20 20 22 26 28 29 33 39 46 56 56 53 46 41 42 43 46 59 63 66 65 66 68 58 52 50 38 39 38 39
21 21 25 18 19 13 12 17 12 13 18 20 21 23 25 25 21 20 20 19 20 20 25 28 27 33 38 38 52 50 45 41 36 35 38 41 45 48 48 49 50 51 43 44 39 36 37 37 38
27 25 22 20 15 14 13 18 17 17 18 19 21 21 23 24 21 19 19 20 21 22 26 26 26 27 27 30 38 43 38 39 34 34 39 44 43 38 47 51 50 45 35 36 37 39 38 38 38
27 24 23 22 20 26 23 25 23 18 18 18 19 20 20 22 20 22 19 22 23 24 24 24 24 23 23 24 30 32 32 31 33 34 40 44 48 38 35 40 43 40 37 37 39 39 38 40 40
20 24 28 25 22 30 30 32 28 19 22 25 26 27 27 28 29 26 24 23 22 22 21 21 21 22 23 24 25 28 28 27 29 28 34 48 38 39 33 33 36 41 38 38 40 40 39 40 41
24 29 33 31 26 30 32 33 24 19 20 23 28 28 26 26 30 28 23 21 20 20 20 22 22 22 22 24 24 25 25 25 25 24 27 32 41 41 36 33 32 36 38 38 36 38 43 43 40
24 30 32 35 36 33 31 31 22 18 23 24 22 25 24 24 26 29 29 23 22 22 22 22 22 23 24 24 25 25 26 28 27 26 26 26 29 39 36 35 33 34 35 34 36 38 40 45 41
31 24 31 37 41 46 32 51 27 21 21 22 25 27 25 24 24 22 23 27 25 21 22 23 23 24 26 27 27 28 27 30 26 26 25 27 28 36 35 36 34 35 36 38 44 41 41 42 46
30 30 38 38 46 42 41 43 30 21 22 24 29 31 29 29 27 24 24 22 22 23 23 24 25 26 26 28 30 32 33 30 28 27 28 26 26 29 34 36 38 41 41 42 40 38 30 28 31
31 38 44 48 48 63 40 39 39 32 24 32 32 29 31 29 28 29 26 27 30 30 30 30 31 32 33 33 33 35 35 34 35 32 31 29 29 33 36 43 44 42 40 40 43 40 37 38 36
42 56 79 69 78 71 45 47 36 28 27 29 30 31 29 29 30 32 27 40 38 36 37 35 34 35 34 33 31 29 31 35 41 40 38 40 39 42 42 40 39 38 38 42 47 51 55 56 44
41 53 82 78 84 76 50 46 38 26 24 25 27 29 30 32 35 35 45 43 40 39 39 41 39 41 36 35 32 31 32 33 35 42 47 50 42 40 40 44 52 61 60 61 66 72 75 66 39
41 60 44 64 91 86 68 49 30 30 35 33 33 31 40 44 48 49 42 45 45 44 45 45 46 46 39 39 31 34 29 30 34 43 50 44 42 47 50 57 69 73 82 79 81 47 42 36 31
36 38 64 81 84 94 70 60 51 39 43 41 41 39 46 44 44 44 47 46 44 44 44 43 44 49 46 29 32 35 34 38 37 36 36 39 46 50 63 74 88 80 61 51 46 40 37 36 39
50 65 56 58 79 95 97 82 45 45 45 45 45 48 44 43 48 53 50 48 46 46 48 50 54 55 37 40 36 39 39 39 37 34 37 44 48 53 53 50 45 44 41 39 39 43 45 47 46
43 53 63 88 79 86 91 70 39 44 38 47 46 43 42 41 50 57 54 53 54 54 54 56 59 48 46 48 40 40 41 39 36 39 43 45 46 47 42 44 42 40 41 46 46 44 42 39 38

GFSSGP_925_rhum_003.txt.gz
RH
8 11 12 14 16 21 19 13 12 12 59 60 50 54 62 70 67 60 73 68 53 50 55 68 78 86 85 85 86 91 87 86 81 74 68 61 56 53 52 46 47 55 58 61 51 51 61 57 52
10 13 9 19 21 23 19 15 21 34 62 61 59 61 79 88 78 87 77 68 61 55 44 52 56 60 69 73 78 76 76 73 75 76 77 78 72 68 69 69 70 69 63 62 57 54 60 58 68
14 15 11 22 25 21 19 14 24 49 48 35 66 66 68 81 78 80 72 74 66 55 47 44 40 48 56 59 63 64 66 64 68 76 79 82 81 80 78 74 70 64 52 58 62 61 62 55 58
15 11 14 17 15 12 14 19 15 28 43 55 62 77 63 61 70 72 75 73 62 56 52 46 44 40 38 39 41 43 45 47 52 62 70 76 78 77 72 68 61 66 66 68 71 68 69 63 56
10 14 15 14 12 11 13 31 34 45 47 54 51 72 74 64 66 70 71 69 55 58 56 52 46 45 44 43 42 40 46 53 55 61 56 58 62 63 64 59 59 68 69 71 70 86 71 68 62
12 14 15 16 12 10 9 17 21 40 43 44 61 68 69 66 66 68 65 68 49 49 52 54 50 45 39 43 46 48 50 54 58 60 59 60 60 58 60 68 71 74 72 72 69 67 70 70 81
11 14 14 12 10 10 8 10 12 11 18 27 51 83 76 65 66 66 64 61 53 59 59 62 60 55 51 43 44 50 49 53 56 56 59 59 59 59 65 70 74 77 68 67 76 84 82 78 89
14 13 12 12 10 9 8 9 11 11 14 37 40 61 79 65 61 68 69 68 67 67 65 70 69 67 59 51 55 52 53 56 58 60 62 64 66 66 67 71 73 73 72 74 78 85 95 98 92
11 17 20 14 11 11 11 11 12 11 24 19 39 46 40 54 58 68 77 82 80 78 73 74 73 73 67 61 63 60 61 60 63 63 70 74 75 70 69 68 69 69 67 67 70 73 78 79 76
15 19 14 13 11 11 12 11 10 10 22 41 45 46 50 58 59 60 69 76 82 80 73 74 76 76 76 70 69 68 68 68 70 69 70 77 75 68 63 59 55 57 57 56 58 58 57 63 68
14 19 14 14 13 12 15 14 13 14 18 40 46 48 63 63 58 58 63 62 64 66 69 65 62 67 76 75 74 72 72 71 74 76 73 73 72 68 64 65 63 60 58 46 52 58 56 59 56
16 14 15 14 14 15 15 14 14 13 13 17 43 46 63 67 60 50 61 56 57 64 52 47 51 62 71 68 66 72 75 74 74 75 72 73 70 63 54 66 73 75 77 59 57 63 71 72 77
16 15 15 14 14 14 14 15 14 15 13 16 42 48 62 64 55 49 47 46 49 44 43 40 38 54 50 56 67 76 75 75 79 76 71 66 62 63 64 69 76 78 79 79 77 67 64 62 58
18 17 18 16 16 16 16 17 16 15 14 18 36 52 58 55 50 38 40 42 45 38 33 32 38 43 46 57 61 61 70 71 80 73 68 58 58 62 65 67 77 82 77 68 48 40 33 30 31
17 19 21 18 18 18 17 14 16 14 15 19 31 38 37 37 30 28 32 40 37 31 29 32 37 37 38 46 50 56 53 49 50 50 50 48 49 62 65 67 70 73 65 56 50 38 34 36 36
21 23 25 18 20 16 12 20 14 13 16 18 22 29 30 28 24 25 30 31 30 28 29 37 35 32 37 39 44 50 51 47 43 40 40 43 44 48 49 51 56 55 51 44 39 35 39 37 37
30 26 22 20 20 19 15 19 15 19 19 19 22 25 27 26 22 19 20 23 22 25 31 31 26 26 30 31 34 38 41 42 40 40 40 41 44 44 41 36 43 46 45 34 33 36 39 36 36
27 25 25 24 22 32 29 26 26 25 21 22 21 21 19 21 26 26 21 21 23 25 28 24 23 23 22 23 24 26 29 31 30 30 32 35 44 48 43 35 40 48 44 35 36 37 40 38 39
21 26 32 27 24 33 33 39 33 29 24 25 26 28 32 32 32 28 26 26 27 25 23 21 21 20 22 22 24 24 24 25 26 27 28 29 27 36 47 38 32 38 43 38 37 39 41 40 42
24 29 31 33 29 36 36 36 24 23 22 26 32 33 32 32 32 30 26 23 21 21 21 21 21 21 21 22 23 24 24 25 25 26 26 26 26 27 40 40 33 31 36 41 39 42 43 43 46
26 29 30 35 37 33 37 33 22 22 25 25 25 28 28 33 34 32 27 22 22 21 21 21 21 22 23 24 24 25 26 27 27 27 27 26 26 29 37 36 38 33 33 41 40 40 40 42 47
32 23 31 39 42 47 38 43 32 22 23 24 30 30 28 28 25 28 28 26 24 22 23 24 25 26 26 29 29 30 32 35 31 31 32 32 29 27 26 29 40 36 34 38 40 39 42 38 43
35 37 40 40 46 45 42 45 37 30 22 26 31 30 29 28 25 24 24 25 25 26 26 30 30 32 34 34 34 35 38 38 37 38 39 38 38 35 30 29 39 40 38 40 43 47 39 30 28
35 42 48 51 52 62 43 44 42 37 33 32 31 30 31 30 27 31 33 34 37 38 36 33 34 36 38 38 36 36 34 33 40 38 38 35 40 41 37 38 50 44 50 52 39 33 40 47 42
45 59 73 64 76 71 50 48 42 31 31 30 32 32 32 31 32 35 42 44 42 40 41 41 40 41 42 36 35 34 31 33 36 32 35 44 49 50 52 53 51 48 47 52 62 74 82 79 78
43 54 80 68 85 79 54 50 42 29 28 28 28 33 33 41 47 49 49 48 46 44 44 43 44 44 44 43 34 31 31 30 31 31 35 41 56 50 48 50 58 68 73 81 81 83 79 84 82
45 63 49 76 94 89 72 53 36 37 42 33 36 40 50 53 52 48 48 47 46 43 42 46 46 46 51 38 43 45 41 38 34 34 38 50 51 53 63 64 70 77 80 85 89 92 88 71 56
43 42 67 84 84 90 77 72 57 43 51 44 46 53 46 45 46 53 52 47 43 46 46 48 50 54 53 48 52 52 43 42 40 38 40 49 50 54 54 60 60 62 65 59 57 55 50 53 52
58 69 62 63 81 91 96 83 53 53 48 51 54 46 44 44 50 56 53 51 48 48 52 51 56 60 52 54 58 53 46 46 46 43 43 47 52 49 41 40 40 46 54 50 52 50 50 48 44
48 63 64 86 77 87 94 74 43 43 46 53 52 54 55 52 54 60 56 54 53 56 57 57 62 62 54 61 60 55 48 49 44 44 46 48 43 41 39 39 40 40 42 43 47 44 42 42 40

GFSSGP_925_rhum_006.txt.gz
RH
10 13 15 15 17 20 19 14 12 18 58 62 56 58 80 92 75 61 85 80 50 54 71 84 86 91 85 85 88 90 85 79 73 66 62 60 71 71 69 66 58 57 65 63 63 54 56 64 57
12 14 10 19 22 24 20 16 44 43 65 64 63 64 82 95 84 91 74 62 48 49 60 71 76 83 82 84 88 87 80 74 73 76 75 71 66 63 60 57 66 72 73 66 56 59 89 87 90
14 11 12 22 25 22 25 16 50 55 57 46 71 70 73 91 86 83 72 67 56 46 47 51 67 64 65 66 71 67 66 62 63 66 71 80 84 84 80 74 65 64 59 54 57 68 84 72 64
14 11 14 18 16 14 18 19 49 54 47 59 69 80 68 67 78 73 72 69 59 52 45 44 40 38 38 38 39 42 48 52 55 58 66 78 81 75 65 57 54 64 68 67 80 93 86 82 79
9 14 16 16 14 15 21 32 33 47 52 54 56 81 77 77 74 70 73 64 52 50 48 44 40 38 38 37 36 39 45 48 49 51 57 60 62 57 59 59 62 70 84 83 83 87 89 93 95
12 14 17 17 12 10 11 17 29 41 43 55 69 75 73 80 72 73 72 61 50 47 49 44 43 41 43 45 46 46 46 51 55 61 65 67 68 67 68 70 71 75 78 75 73 71 71 73 78
12 15 15 13 11 10 8 10 12 16 24 40 64 78 76 80 69 71 73 62 59 58 54 51 50 48 47 44 45 46 49 50 53 60 63 63 60 59 62 64 65 65 68 70 75 76 80 86 93
14 14 12 12 11 9 9 10 11 12 19 43 45 80 75 69 72 77 81 66 66 62 64 63 62 61 55 50 51 51 48 53 56 61 63 63 63 60 60 59 57 58 60 63 67 72 78 86 87
12 19 18 12 11 10 12 11 12 13 27 24 44 57 44 56 74 82 85 73 70 71 68 69 69 70 64 59 59 57 59 58 58 63 62 66 65 62 56 58 56 57 58 59 59 61 64 71 76
16 19 14 13 12 12 13 11 11 17 31 40 43 49 62 64 74 84 87 82 77 75 74 73 72 72 71 67 68 65 66 64 66 67 65 69 71 64 61 58 55 52 56 56 53 52 50 56 57
16 18 15 14 12 12 15 15 13 20 24 41 37 50 71 71 69 78 79 75 70 70 75 71 68 70 70 75 71 72 70 70 70 72 71 73 74 75 69 62 60 62 59 62 55 59 58 52 56
16 16 16 14 15 16 16 15 15 16 14 23 42 57 72 78 73 67 70 70 70 71 68 68 54 47 50 67 74 74 71 74 74 76 76 73 71 72 56 50 56 64 64 65 60 67 74 72 64
17 16 16 15 16 15 15 16 14 17 16 15 40 60 74 77 68 60 56 61 64 66 69 53 44 45 59 65 70 70 74 77 77 77 77 72 69 60 59 58 59 67 72 71 70 64 47 42 35
18 19 18 18 17 17 16 17 16 15 15 17 50 55 70 73 65 57 54 51 57 58 57 46 46 53 60 57 59 66 70 73 74 78 76 69 63 59 65 67 67 70 74 73 61 44 36 30 32
20 20 21 20 21 18 18 17 16 16 14 18 30 55 59 65 55 47 39 43 43 51 47 45 44 42 43 44 46 50 53 53 52 56 55 53 51 45 49 57 60 62 78 74 58 50 34 34 34
23 24 25 18 20 16 14 23 16 13 15 18 21 41 51 50 38 36 28 32 43 48 41 40 38 35 35 37 37 40 46 51 47 46 42 42 42 41 42 41 38 39 59 62 52 50 35 38 35
31 24 23 23 26 30 18 23 18 17 25 24 21 27 33 29 24 21 22 29 40 39 34 36 34 31 30 31 32 40 42 36 36 38 37 39 42 44 45 41 37 36 41 46 44 37 36 39 37
27 24 28 26 26 34 34 31 32 31 28 26 24 27 26 24 27 30 24 22 25 26 30 31 28 28 25 24 25 27 27 26 27 26 27 28 32 38 45 46 43 38 37 42 44 35 37 39 39
23 26 32 30 27 35 37 42 32 28 29 28 26 31 37 34 32 31 28 25 25 27 30 26 23 23 22 22 23 23 23 24 25 25 26 26 27 28 36 46 48 44 40 35 36 36 38 41 43
24 29 30 33 32 36 39 37 23 28 29 33 37 38 34 33 31 30 28 27 27 25 23 22 21 22 22 24 26 28 28 27 27 26 27 28 28 28 30 31 35 45 41 40 42 40 40 41 44
31 27 29 35 39 36 39 31 32 23 28 30 32 29 30 32 30 29 27 24 23 22 23 24 24 25 27 28 30 31 33 34 34 33 34 32 33 35 36 33 31 35 46 38 37 42 42 45 48
37 26 32 39 46 47 39 42 37 35 25 32 30 29 26 28 31 32 30 27 26 26 26 29 32 36 38 38 38 40 42 43 36 38 39 38 36 37 40 43 39 41 53 49 39 40 46 52 54
38 40 43 41 50 47 48 46 36 35 27 28 30 30 30 32 30 27 28 33 38 35 39 38 38 39 39 36 37 36 34 34 35 34 37 31 30 30 32 38 44 44 53 59 54 56 60 60 51
38 46 44 54 55 63 49 49 44 40 34 32 31 30 33 30 32 37 42 45 44 41 40 39 36 37 37 38 38 36 38 40 38 36 35 35 36 35 37 39 47 62 68 64 58 51 47 55 66
49 55 64 62 74 70 51 52 42 34 32 31 32 31 34 42 46 42 55 51 46 43 42 42 43 45 47 49 42 45 45 46 39 38 40 40 39 42 47 54 64 63 67 72 70 75 82 89 92
47 56 77 59 87 82 59 54 44 32 38 34 35 44 54 58 60 60 54 51 47 46 44 47 50 50 47 49 48 51 54 51 44 39 41 43 45 54 59 60 64 69 72 73 79 85 93 97 97
46 66 54 79 96 90 73 56 42 44 48 44 52 54 52 51 52 52 52 50 47 44 44 48 50 52 51 56 53 58 58 52 47 41 42 47 52 58 64 65 64 62 61 65 85 91 90 95 87
48 47 65 84 88 88 74 70 62 57 54 57 55 51 53 52 54 55 51 48 49 50 53 53 53 56 58 58 56 61 57 50 51 50 50 58 61 63 64 63 53 48 52 54 60 56 70 86 86
60 68 65 68 83 93 97 80 56 55 53 59 54 59 61 60 53 56 54 52 54 54 54 56 52 56 59 56 63 59 57 60 52 55 56 61 65 55 47 47 49 46 43 47 57 63 61 54 49
54 57 64 83 71 90 93 85 46 49 57 55 57 62 62 60 60 58 57 59 59 54 56 61 56 62 63 65 58 62 69 58 51 58 64 63 48 43 45 53 49 48 43 43 47 47 44 42 41

GFSSGP_925_rhum_009.txt.gz
RH
10 13 15 14 13 14 16 15 12 35 53 54 52 44 60 74 59 54 85 79 48 56 76 85 86 83 81 85 85 81 77 72 65 63 67 75 75 75 73 69 62 58 62 68 68 60 80 85 86
13 14 11 15 15 17 25 20 22 51 59 58 58 64 68 73 78 75 72 67 44 50 62 68 76 78 79 80 80 81 79 74 73 70 65 65 73 71 66 60 62 66 68 63 61 89 92 86 87
14 10 11 17 19 18 29 25 53 59 53 50 62 62 68 74 76 71 70 54 42 39 51 57 63 67 67 64 76 77 76 75 82 82 84 82 76 69 71 75 68 60 58 58 70 80 84 85 83
13 10 12 21 24 18 25 33 52 51 47 56 59 64 65 72 73 77 66 60 49 41 38 43 51 57 60 67 71 73 72 72 76 87 88 90 90 85 78 69 60 70 71 74 76 79 81 84 81
9 11 16 24 24 23 24 28 41 42 46 51 54 71 73 76 77 69 70 65 48 46 46 43 43 43 44 44 45 45 46 49 51 53 57 59 58 56 54 56 63 76 85 84 76 72 71 69 68
10 12 18 23 19 11 18 21 34 41 50 58 59 64 70 85 76 73 70 56 49 45 45 44 46 44 41 43 45 44 46 50 50 52 54 59 63 65 66 65 67 67 66 64 64 73 81 85 89
11 14 14 13 12 10 10 9 16 24 31 37 50 60 76 81 80 72 70 59 56 51 48 51 48 46 44 43 42 44 48 51 52 53 56 56 57 58 60 62 62 63 61 63 66 71 75 84 89
11 11 12 12 11 10 9 11 11 15 28 44 48 49 71 65 78 76 78 67 61 60 57 56 55 54 51 48 50 51 48 50 53 54 55 54 55 56 58 58 56 52 53 58 62 62 65 75 82
12 13 12 11 10 11 12 11 12 17 29 24 35 50 46 65 80 90 94 87 79 71 66 63 61 64 61 57 58 56 58 58 57 62 60 58 58 60 56 50 51 48 51 54 54 52 53 56 61
12 14 14 12 11 12 13 11 11 16 28 37 41 49 70 78 82 81 83 78 85 79 65 68 69 69 67 63 66 62 63 64 66 67 69 69 70 67 60 57 57 56 57 54 52 50 46 45 52
16 15 15 14 11 12 15 14 13 18 22 25 23 47 67 75 78 76 74 68 70 75 76 71 70 68 62 66 67 66 65 67 68 69 71 71 71 69 68 62 55 58 66 64 64 54 54 59 56
17 16 15 15 16 15 14 15 15 16 12 17 27 47 63 64 70 73 73 72 74 78 81 72 70 71 59 59 65 71 74 71 72 71 71 73 72 68 70 58 57 57 62 65 63 60 61 53 49
17 16 16 15 15 14 16 15 15 15 14 14 34 56 59 59 61 67 69 71 77 73 71 71 74 63 46 54 63 68 73 74 74 74 73 77 73 66 61 57 57 58 62 64 68 63 50 32 28
20 19 19 18 17 18 17 17 16 14 15 18 36 45 54 60 62 63 63 62 65 64 64 70 62 49 47 51 55 60 67 70 68 68 69 75 71 61 54 50 48 49 56 67 73 62 46 35 30
22 18 18 20 20 17 18 16 15 14 13 15 25 39 52 59 64 61 56 56 52 59 62 65 49 43 37 42 47 47 47 48 49 46 46 48 47 44 46 45 44 41 45 58 75 64 53 39 34
20 21 21 19 22 19 16 20 15 15 17 17 18 24 45 51 53 46 45 36 33 47 53 58 45 36 34 39 38 34 36 41 44 41 42 39 39 40 40 40 38 38 40 46 61 67 57 44 42
25 18 23 22 26 27 24 24 19 22 24 23 21 19 33 41 34 25 22 24 33 44 52 45 39 35 33 34 32 31 32 32 32 31 33 32 31 31 36 38 36 40 42 42 46 50 46 48 46
26 23 26 26 23 29 30 29 26 22 25 26 22 22 28 29 25 30 24 22 28 44 42 38 35 30 31 34 33 30 27 26 28 28 28 29 31 33 38 39 38 43 46 43 43 46 51 44 47
24 26 30 27 29 32 36 32 21 24 25 25 25 26 26 27 30 30 26 25 26 27 29 32 29 30 37 35 30 28 26 26 27 29 31 33 34 33 32 35 39 46 56 50 46 47 53 56 52
26 28 26 29 30 34 34 26 24 26 30 32 31 30 29 28 28 32 33 31 30 29 35 34 30 28 28 29 30 32 33 34 35 35 33 32 32 33 38 41 41 45 65 68 60 62 58 59 60
33 28 31 34 34 34 33 27 28 23 26 27 28 29 28 27 26 27 28 32 28 30 29 29 30 35 39 39 38 38 38 40 39 41 36 32 32 31 31 32 37 43 61 68 65 69 67 54 57
37 32 39 40 41 37 37 31 30 30 26 28 26 27 27 27 27 28 31 37 40 37 40 42 42 40 40 40 37 36 46 46 47 49 45 29 27 32 36 36 34 39 59 71 71 69 72 67 54
39 42 44 42 45 43 41 34 31 31 28 26 27 28 29 31 33 40 49 51 53 45 44 42 40 41 42 41 39 42 49 54 54 54 51 45 39 33 38 38 35 37 46 71 78 78 82 73 64
40 43 41 47 47 50 47 42 38 34 33 31 29 29 35 36 36 42 52 51 52 44 41 40 39 40 41 39 43 47 52 59 60 56 52 48 48 49 42 42 44 50 61 75 82 78 80 76 73
43 42 46 54 60 54 48 46 38 36 34 32 33 36 46 49 47 47 47 48 49 44 43 44 43 49 50 50 51 52 58 63 61 57 51 52 55 59 58 56 65 81 88 92 93 96 100 100 99
50 50 62 54 63 60 53 49 45 42 38 36 44 46 44 45 48 49 50 51 51 52 51 58 58 55 52 46 49 51 56 60 58 58 59 61 64 70 63 73 79 72 68 70 75 85 92 97 99
47 59 52 71 90 79 56 48 42 40 40 44 44 44 46 44 45 47 49 51 54 57 54 51 52 44 45 52 56 56 62 54 62 64 62 65 68 78 79 73 79 74 75 71 75 78 82 82 83
44 46 54 66 74 68 51 58 42 48 45 49 48 52 51 47 43 43 43 50 56 57 52 54 57 56 58 64 62 67 62 63 64 54 52 64 73 92 86 69 56 65 72 72 63 68 91 97 96
52 55 60 59 71 80 91 56 49 48 47 47 50 54 54 51 48 46 49 53 60 60 62 64 68 68 72 66 63 58 60 60 50 57 68 73 80 66 58 64 67 76 90 76 50 52 66 70 69
52 54 54 61 60 76 83 65 42 46 46 48 50 55 54 53 51 51 54 59 63 60 59 67 76 78 69 62 68 77 64 56 60 72 72 68 65 60 68 71 88 96 81 71 68 61 48 51 50

GFSSGP_925_rhum_012.txt.gz
RH
16 16 16 12 10 12 18 20 21 34 34 36 33 29 34 43 39 42 52 56 49 58 73 81 83 83 82 81 82 79 75 68 73 77 78 80 80 80 76 70 65 60 58 66 67 73 92 89 90
18 12 11 9 10 13 18 18 22 30 36 34 35 36 31 40 42 48 50 53 50 60 70 76 82 85 89 89 90 88 87 80 74 71 75 80 79 77 75 69 72 72 69 77 89 97 96 82 72
15 11 8 9 10 15 19 20 32 36 35 35 36 36 39 40 40 43 47 50 49 56 63 81 78 79 83 89 90 87 82 81 82 77 79 77 73 68 68 74 69 58 63 77 86 98 90 81 79
11 7 10 10 14 19 19 24 26 33 37 33 25 34 41 51 48 48 55 52 42 46 55 55 60 65 69 67 64 66 71 73 75 79 82 83 85 81 72 60 51 53 59 59 64 69 76 82 86
7 8 12 13 17 20 22 26 27 25 28 32 31 38 43 55 59 56 59 53 45 45 53 57 49 48 45 45 48 53 54 54 54 57 62 61 59 56 55 57 60 62 62 64 66 68 70 67 67
7 10 12 15 20 21 21 22 21 20 23 31 30 32 42 58 54 56 56 49 44 48 57 57 43 43 45 45 45 46 48 49 52 53 54 57 57 56 55 56 57 58 59 62 67 71 77 82 84
8 9 11 13 17 16 15 15 17 17 19 22 26 30 46 50 49 54 49 46 48 47 50 55 56 61 47 47 48 50 54 54 53 55 57 57 58 59 60 61 64 66 68 68 68 70 74 77 81
7 6 9 9 9 9 8 8 9 11 22 30 26 22 38 40 54 54 50 48 49 54 52 58 62 59 63 63 50 51 52 54 55 56 59 59 63 65 69 59 68 57 55 57 59 60 60 62 67
7 7 8 8 8 9 8 7 9 16 17 19 21 22 26 43 59 58 57 52 53 56 62 64 61 64 65 60 62 56 57 58 58 67 64 71 67 71 68 66 55 52 51 52 51 50 48 45 54
7 7 8 7 8 7 8 7 8 11 14 17 22 32 38 52 57 54 52 46 53 56 61 63 70 69 70 59 67 67 69 66 72 75 82 71 78 76 70 69 57 48 47 51 51 49 47 51 49
8 8 9 8 8 7 7 8 8 8 10 10 11 24 37 47 51 48 43 35 40 46 54 62 75 78 74 59 57 55 57 62 66 81 83 76 81 74 73 70 65 67 68 62 61 63 56 64 63
10 10 8 9 10 9 8 9 9 9 8 11 12 18 31 37 39 36 36 33 34 40 50 61 72 80 80 60 54 55 57 58 62 65 86 79 70 69 72 64 60 60 57 65 60 58 70 69 62
10 11 11 10 10 9 11 10 12 10 8 10 17 24 25 28 30 34 33 32 36 45 53 62 73 79 69 69 58 64 66 60 65 66 67 77 68 65 64 59 58 56 55 56 58 56 59 53 48
15 13 14 13 13 14 14 13 13 10 10 10 16 21 22 24 25 29 35 36 43 47 50 63 74 76 58 55 64 60 61 59 62 58 58 73 73 62 57 53 49 47 47 50 53 52 54 47 46
15 16 14 15 15 14 13 13 11 10 10 11 13 15 20 23 24 26 30 37 42 43 46 60 71 64 58 55 55 50 47 53 48 49 57 65 69 59 60 51 49 46 48 56 60 61 58 53 43
13 13 14 16 14 17 14 14 12 14 14 12 14 14 21 23 27 33 41 43 37 37 43 55 62 56 55 50 50 47 45 49 46 48 51 58 61 64 61 53 50 49 53 51 51 51 48 48 43
12 11 14 17 17 18 16 15 14 14 15 15 13 14 16 21 31 35 31 30 30 31 40 52 59 48 47 50 49 52 55 51 43 45 41 44 51 54 57 50 49 54 54 50 51 50 49 47 39
14 13 14 15 16 16 16 17 15 16 17 17 16 15 15 21 27 27 26 24 25 38 47 51 50 48 53 49 48 39 38 38 39 35 36 42 43 50 53 51 54 59 58 54 49 51 49 46 45
16 16 17 15 20 24 23 18 17 17 16 18 16 16 19 23 21 23 28 32 33 43 44 42 46 47 41 34 33 30 32 32 33 36 45 49 47 49 51 49 49 51 52 54 59 56 54 55 48
19 18 19 20 22 25 22 19 17 18 21 20 19 19 20 19 19 24 29 34 38 39 38 35 34 36 35 32 37 41 44 39 43 42 42 41 45 44 43 46 47 46 48 50 54 59 60 56 52
24 22 28 28 24 24 24 22 19 19 20 20 19 19 18 19 20 22 25 31 35 39 38 36 39 42 46 43 38 36 36 36 34 38 36 39 42 42 43 42 46 49 48 45 47 52 54 54 53
25 27 31 30 28 21 26 22 24 20 20 20 21 22 22 22 21 25 29 34 41 46 45 43 42 41 44 47 40 46 40 40 43 42 41 45 42 42 42 44 48 49 50 50 49 48 53 56 54
32 34 33 33 30 29 27 23 27 21 21 21 22 23 25 26 28 32 36 38 42 45 48 47 44 44 47 46 49 45 46 46 45 46 45 39 35 36 39 44 55 56 56 56 64 68 67 64 61
32 34 34 34 34 39 34 30 29 27 29 24 23 27 30 31 28 35 38 38 39 44 49 48 44 44 50 52 51 54 55 53 48 44 42 36 38 37 40 48 60 66 68 70 71 75 82 80 82
27 30 35 47 46 41 35 32 38 31 28 29 30 32 34 36 35 33 33 34 38 43 46 46 46 43 45 50 48 48 48 50 49 47 44 46 40 41 47 62 66 68 77 78 80 96 98 97 97
36 36 48 50 46 38 35 32 34 31 30 31 31 33 32 34 34 34 34 35 39 46 48 51 47 42 42 45 46 47 54 56 54 51 51 49 48 53 62 72 72 72 72 72 80 94 99 100 98
36 44 40 55 80 63 34 34 34 31 31 31 33 34 35 34 33 33 34 37 41 46 49 53 52 48 48 53 57 60 63 60 57 53 53 52 58 60 73 76 74 70 71 71 75 92 96 96 87
34 37 43 41 71 44 23 27 25 37 35 34 34 35 35 34 33 34 35 38 42 46 52 53 52 51 56 60 61 62 62 58 57 57 58 64 68 75 76 75 64 65 80 95 99 91 78 84 88
40 42 43 39 50 51 49 27 32 33 34 35 36 35 37 38 37 36 39 42 46 51 48 49 55 56 54 59 59 60 61 58 59 62 63 66 67 60 59 59 68 90 99 98 99 87 70 61 56
38 40 38 46 47 53 65 42 30 31 34 37 36 38 38 39 36 37 41 44 48 47 46 46 52 52 54 56 58 58 62 61 62 68 70 72 71 68 68 85 98 98 98 97 87 79 67 54 50

GFSSGP_925_rhum_015.txt.gz
RH
8 12 12 10 11 10 16 18 17 21 23 22 20 20 22 28 37 50 35 34 44 54 65 80 86 85 87 87 85 81 76 76 76 79 80 82 83 79 73 68 63 58 59 65 79 94 92 74 76
13 9 10 8 11 12 15 13 18 20 20 18 18 18 20 29 31 34 31 35 43 51 55 83 82 84 88 89 87 84 78 70 67 71 80 81 78 75 71 69 71 70 71 81 92 95 84 74 71
18 10 9 8 9 10 15 12 20 20 20 20 21 19 22 29 26 28 33 36 41 46 57 72 80 90 90 86 84 86 81 78 76 75 76 74 73 69 71 74 63 55 60 67 79 82 79 78 75
10 6 8 9 13 12 14 18 19 20 21 19 15 25 32 28 29 33 34 31 34 37 51 64 70 67 67 73 78 78 75 70 72 76 74 72 73 72 61 52 53 62 69 70 67 67 66 64 60
8 6 9 10 14 15 16 16 16 19 19 18 16 19 36 38 36 34 32 29 30 32 40 61 46 45 48 49 49 50 54 56 59 65 70 70 64 57 57 57 58 58 57 57 61 66 69 73 75
7 7 10 14 15 16 17 16 15 14 15 15 17 22 34 38 34 36 32 28 29 36 39 44 35 39 42 44 48 52 57 60 61 64 66 66 62 60 58 57 57 53 52 51 54 59 64 68 72
8 9 10 13 15 15 14 12 12 12 13 13 13 22 31 30 34 33 29 28 29 34 37 41 48 53 42 44 46 49 51 53 58 59 58 57 56 56 57 54 54 48 45 48 52 54 53 54 60
6 7 10 10 12 10 8 8 8 10 16 13 13 20 33 30 34 32 29 30 33 35 40 42 44 44 49 65 48 50 49 53 54 57 57 56 68 67 67 64 66 48 48 48 48 47 44 43 41
5 6 8 7 7 7 6 6 6 8 12 12 12 16 22 33 36 32 32 32 35 37 44 42 44 45 46 42 56 54 55 53 58 67 69 70 59 58 57 66 62 54 51 51 52 48 45 40 46
6 6 6 5 6 6 6 5 6 9 10 12 16 16 27 34 34 32 30 31 34 38 40 42 50 48 48 40 48 50 50 50 55 58 64 55 64 64 65 64 65 63 64 63 60 57 56 55 46
5 7 6 6 5 4 5 5 5 7 9 10 13 16 25 31 32 31 29 28 30 35 34 40 62 59 51 43 39 39 41 45 48 59 64 59 62 58 57 54 52 54 55 53 54 54 52 55 56
7 6 5 5 5 6 6 6 7 6 7 7 8 15 22 27 29 29 27 24 26 30 32 40 55 65 58 43 37 39 40 44 45 51 59 56 52 53 54 50 48 45 43 47 48 48 50 58 56
6 7 5 6 6 6 7 8 9 7 6 8 10 15 20 23 24 24 25 24 25 28 31 36 47 66 54 52 42 46 49 45 52 51 51 54 54 52 50 49 47 43 42 42 43 44 46 47 46
8 9 10 9 10 9 10 10 10 9 7 7 11 14 16 18 20 22 25 25 26 28 31 36 44 60 52 42 46 47 49 47 46 43 45 52 56 54 53 48 45 42 39 40 43 45 48 48 42
10 12 12 12 11 11 10 11 10 9 9 8 8 11 14 15 16 19 23 26 27 28 30 36 46 56 52 43 43 41 37 39 37 38 44 48 52 50 53 48 47 44 43 44 44 44 45 46 45
11 11 14 12 12 12 12 14 10 10 10 9 10 9 12 14 16 18 21 24 26 26 26 32 46 55 51 37 38 37 35 39 38 39 41 46 51 53 53 48 46 45 49 48 45 44 44 43 41
11 13 12 15 12 12 12 12 11 11 11 11 10 11 11 13 16 21 26 26 24 24 25 32 47 51 44 39 38 41 43 43 36 37 34 36 42 44 50 48 48 50 51 50 49 46 44 43 43
11 9 9 10 13 10 11 11 11 12 12 13 11 10 11 12 16 24 23 23 21 27 34 37 48 44 44 39 40 34 33 32 33 32 33 41 44 47 50 48 48 49 47 45 45 50 50 50 49
10 11 11 11 14 15 13 13 13 14 13 15 14 13 13 14 21 23 26 27 31 38 39 40 45 44 35 30 30 28 29 30 31 34 38 43 42 45 44 42 40 43 41 42 47 48 50 52 51
14 14 14 14 15 16 14 14 14 15 17 15 15 16 18 20 20 23 29 33 34 35 34 33 33 35 32 30 33 39 41 36 37 38 39 38 41 43 41 41 41 39 40 42 44 47 50 50 50
17 18 22 21 17 16 16 16 16 16 16 16 15 15 16 18 20 21 26 31 36 36 33 34 36 38 41 39 33 34 33 31 32 33 38 38 44 43 40 39 39 43 45 43 43 44 45 47 46
21 21 23 22 21 19 16 20 18 16 18 18 18 19 19 19 20 22 26 32 38 40 39 38 37 37 40 45 39 44 39 38 39 41 40 43 41 37 36 35 39 44 53 53 51 45 52 52 51
24 26 25 24 23 20 17 16 23 16 19 20 20 21 22 23 25 26 29 33 36 40 43 41 38 39 43 45 47 47 44 45 44 42 42 42 36 38 37 37 42 49 55 56 60 62 62 62 60
24 26 25 26 24 31 23 21 23 21 22 21 21 24 25 24 26 28 30 31 35 40 44 43 40 38 41 47 48 48 48 46 44 43 43 40 43 41 39 42 48 56 58 61 63 81 85 85 86
22 24 35 40 38 37 24 21 31 25 23 22 24 26 29 29 29 27 28 29 34 38 39 42 39 39 38 41 44 45 45 48 46 46 46 48 44 43 44 52 58 58 61 67 76 86 92 96 100
26 29 44 44 40 30 24 22 28 24 24 25 25 26 27 29 29 29 30 33 34 36 39 44 44 41 40 43 47 50 52 51 51 52 52 50 49 51 53 56 65 73 77 80 81 90 94 99 98
29 34 29 45 57 53 22 22 26 25 27 26 26 27 28 26 26 28 29 31 35 37 38 45 47 42 41 46 51 53 52 54 55 54 53 52 54 55 59 76 80 68 74 87 92 91 92 94 93
29 27 39 34 60 39 19 17 26 32 28 28 26 27 27 27 27 29 31 33 36 39 42 43 43 42 46 47 48 50 53 56 52 53 54 54 55 55 55 63 64 84 91 92 91 90 90 90 90
30 32 33 27 37 46 38 26 22 23 25 28 27 26 28 29 30 29 31 35 37 40 40 40 41 43 44 44 46 47 49 52 51 50 53 62 64 63 64 66 77 93 94 91 96 99 96 98 80
30 31 29 42 37 38 50 43 22 24 24 25 26 26 30 31 30 30 33 38 39 39 40 40 40 40 42 45 43 41 43 47 48 57 64 66 70 66 71 89 96 88 89 92 96 95 79 75 76

GFSSGP_925_rhum_018.txt.gz
RH
3 11 13 12 16 13 13 16 17 21 22 18 17 18 27 35 42 56 32 44 57 71 82 80 78 84 84 82 80 76 76 80 83 83 82 80 78 76 72 68 66 67 69 73 79 81 65 63 62
8 17 9 12 17 16 15 15 18 19 17 13 16 16 27 37 32 29 35 44 48 68 82 86 82 85 86 86 84 81 75 72 70 71 74 76 75 72 70 71 70 62 66 91 96 87 71 68 67
9 14 12 14 14 14 16 16 21 17 14 16 19 24 24 30 27 29 36 43 47 71 72 83 84 85 85 84 84 79 74 72 73 78 83 82 82 82 76 60 53 58 68 76 69 66 65 64 64
16 10 10 13 13 13 13 19 18 18 18 16 18 31 26 25 29 30 32 36 41 66 57 60 62 67 67 67 69 71 74 74 75 75 73 72 69 59 55 59 63 63 57 53 52 54 57 59 62
14 11 13 13 15 15 16 15 14 18 18 16 15 34 37 31 29 26 26 29 35 50 41 43 44 42 42 44 46 48 51 53 55 57 58 57 56 55 52 52 49 43 40 40 42 47 52 53 53
12 11 14 14 16 16 16 14 14 20 16 13 19 30 37 30 28 26 25 27 31 42 36 32 33 34 37 42 48 50 51 52 53 53 54 55 53 52 51 51 49 45 41 40 43 45 43 40 40
15 14 14 14 16 17 16 12 11 11 13 13 14 31 33 28 31 26 24 27 33 35 41 42 32 35 37 39 44 48 48 49 49 51 52 49 57 59 57 53 48 41 39 39 39 38 35 33 32
9 10 12 12 14 14 10 10 9 10 15 11 13 28 34 31 29 26 26 27 31 35 40 45 47 49 58 54 38 43 45 45 48 56 56 62 69 66 66 64 58 49 39 42 41 43 39 33 31
6 8 11 9 10 8 6 6 6 8 12 11 15 18 27 31 28 27 27 29 32 36 41 40 41 43 47 50 46 56 42 53 64 66 61 64 66 66 68 57 60 58 58 54 57 54 53 50 48
6 9 7 5 6 6 5 5 6 9 10 13 18 25 30 30 30 28 28 30 34 37 40 43 45 45 43 36 48 51 49 58 58 62 62 62 59 61 58 61 61 61 56 51 61 55 54 55 58
6 8 6 5 6 4 5 5 6 8 10 12 15 27 30 30 29 28 27 29 32 33 35 47 52 48 48 42 36 41 44 45 52 61 61 59 56 55 54 52 54 49 48 54 48 52 50 55 56
6 5 4 5 5 4 5 4 6 6 8 8 12 17 27 28 28 28 27 26 27 33 33 49 55 59 52 45 41 40 46 44 48 51 56 54 53 52 50 50 48 45 42 42 44 44 45 46 51
6 5 5 5 6 6 6 7 8 6 7 7 12 16 24 24 26 27 26 23 25 29 32 36 51 62 54 44 43 46 45 50 47 49 50 53 55 54 52 50 48 44 42 40 41 43 45 47 46
6 6 7 7 7 7 7 9 9 7 6 8 11 16 20 22 23 24 23 23 24 26 30 35 48 57 54 43 45 47 49 46 44 42 45 52 54 55 52 50 49 47 45 44 44 45 47 50 50
8 10 10 10 9 9 9 11 10 8 7 7 10 12 16 18 19 21 22 23 23 28 28 34 43 54 51 42 43 41 39 37 37 38 42 47 50 50 52 53 50 48 47 48 48 49 47 45 46
10 10 14 11 10 11 11 14 8 8 9 9 8 10 12 15 15 19 22 23 24 25 28 33 43 56 56 42 40 36 37 38 38 37 40 42 47 48 49 51 51 50 50 51 52 52 51 49 46
12 14 14 14 10 11 11 13 9 9 10 11 10 10 10 13 15 18 20 23 24 23 25 26 45 51 53 41 38 40 42 42 40 37 35 38 42 43 47 50 50 49 50 52 51 52 51 52 52
15 10 9 10 12 10 10 11 10 10 11 12 11 11 12 12 15 22 24 24 24 31 32 34 49 48 46 40 40 37 35 34 33 32 36 41 44 48 47 45 45 45 46 47 46 46 49 52 55
10 9 9 11 13 13 11 11 10 12 12 13 13 13 13 25 25 27 27 30 35 36 41 46 46 42 36 31 31 32 35 35 34 35 38 41 40 42 44 43 44 41 44 44 45 46 49 52 51
11 13 12 13 13 14 12 13 13 14 15 14 14 15 22 24 26 30 34 34 34 33 33 33 36 37 36 35 34 37 36 37 37 35 39 38 40 45 44 43 42 43 43 46 49 53 58 56 53
13 15 22 20 16 14 15 16 16 15 15 14 16 18 20 23 25 28 33 38 37 35 34 35 37 40 42 36 36 38 38 36 36 38 38 42 43 43 40 39 39 41 46 51 55 50 55 64 62
19 21 22 20 20 21 15 21 18 17 18 18 19 22 21 21 22 26 33 39 41 40 38 37 37 37 42 44 45 47 48 49 47 45 44 44 42 44 42 41 42 45 51 56 57 62 63 68 78
22 22 22 21 22 21 16 20 21 17 21 22 23 24 25 27 28 30 32 35 39 42 44 42 39 37 42 47 49 50 49 49 46 47 47 46 48 46 44 44 46 52 53 60 67 75 79 81 83
20 24 22 22 25 43 20 21 33 22 20 21 22 24 25 27 28 28 30 32 38 41 42 42 39 38 38 41 43 45 47 49 52 52 51 55 52 49 50 51 54 57 68 71 71 73 77 78 78
21 25 47 61 52 53 26 19 33 24 22 20 24 28 30 31 31 30 29 30 33 36 38 40 43 42 40 41 46 50 54 54 55 55 57 56 55 55 56 61 72 75 82 78 78 83 87 91 92
24 26 60 55 63 44 20 22 32 24 24 24 25 27 28 30 30 30 29 30 32 35 37 41 44 44 41 45 50 52 52 54 57 56 54 56 57 57 55 57 66 80 76 89 92 93 94 94 89
28 35 23 41 56 61 25 29 27 25 26 25 25 25 27 26 26 28 29 31 34 36 39 42 44 42 43 44 47 50 52 54 56 53 53 54 60 62 61 63 69 77 89 90 85 80 83 84 93
24 21 40 50 63 46 24 22 38 32 29 28 25 26 25 24 27 30 30 34 36 37 40 41 40 41 42 42 44 46 46 47 51 50 52 62 61 64 61 67 74 88 90 89 87 89 89 88 98
28 29 29 26 40 54 51 30 21 22 25 27 26 24 28 31 30 32 34 37 40 41 41 41 39 38 39 42 44 43 42 42 44 57 63 65 62 58 60 67 71 82 85 79 70 75 81 82 78
24 27 27 62 45 58 58 43 20 23 23 27 29 28 31 32 36 36 39 41 41 40 42 39 34 38 41 42 42 39 39 40 49 57 64 61 57 57 56 52 53 58 64 67 70 60 61 72 69

GFSSGP_925_rhum_024.txt.gz
RH
5 4 14 16 20 23 23 18 26 34 46 41 38 45 54 53 55 81 94 81 88 87 83 78 75 74 74 75 78 80 80 78 78 76 73 70 67 66 66 60 45 41 44 49 48 45 50 49 50
5 12 18 19 24 26 31 24 37 37 40 36 37 46 56 77 75 94 93 96 76 76 82 81 79 78 75 72 71 70 70 72 71 70 68 68 66 56 45 43 44 40 32 31 38 41 45 47 50
7 12 16 21 25 28 33 25 24 30 32 34 41 38 40 53 69 78 88 86 77 83 85 83 79 75 76 75 72 73 77 80 74 63 58 53 47 46 44 43 38 32 31 32 29 29 27 30 29
16 14 14 17 19 18 29 26 32 36 36 36 39 46 38 48 62 84 91 82 76 85 84 81 76 74 69 66 62 62 62 64 57 52 48 47 45 43 42 40 34 27 24 24 24 26 26 26 26
21 18 18 18 21 24 22 24 27 39 45 42 37 45 45 66 78 85 81 71 71 85 77 71 59 50 48 49 52 49 48 46 44 45 46 43 42 41 39 33 27 26 24 24 27 27 26 25 25
18 17 19 20 22 24 18 24 36 46 42 39 40 42 43 67 70 71 54 50 46 57 54 42 36 36 38 40 40 39 40 40 41 42 44 53 50 49 48 50 45 41 36 42 39 46 47 41 32
19 21 19 17 16 20 18 17 31 46 47 47 36 43 40 43 51 41 31 32 37 34 31 35 35 34 29 30 30 36 39 40 40 46 59 58 59 55 55 58 56 52 54 52 52 51 52 50 47
18 17 16 15 22 23 14 15 17 34 40 37 33 49 41 37 41 34 30 25 26 30 37 44 46 44 28 21 29 32 41 53 54 62 64 63 61 59 60 61 60 52 56 55 51 51 53 52 52
12 18 19 15 15 14 10 14 13 21 33 32 32 37 31 38 41 44 44 35 35 39 45 50 47 47 42 35 34 49 57 61 61 66 66 64 63 62 63 62 58 53 55 52 47 48 50 50 52
15 18 12 10 11 10 8 9 11 30 45 49 48 38 34 36 39 44 46 51 50 54 50 48 47 48 46 49 44 54 56 60 63 64 63 62 64 65 62 62 52 49 47 44 44 46 47 47 46
12 11 7 8 8 8 9 9 10 36 44 45 45 41 35 34 34 37 40 42 46 49 50 50 43 44 47 50 52 51 58 63 64 62 60 60 63 56 56 51 45 47 44 44 45 46 46 44 45
7 7 6 8 7 7 9 8 9 14 32 40 35 35 37 39 36 34 36 42 49 48 48 47 45 49 47 46 50 53 56 62 67 60 57 55 55 53 49 49 47 48 47 48 47 46 46 46 46
8 7 7 9 9 8 8 9 10 14 37 38 36 35 37 37 35 30 30 36 46 50 50 47 47 50 44 44 47 50 52 62 59 59 53 43 52 51 51 53 52 52 51 53 55 54 52 50 52
7 8 7 7 9 9 11 12 10 11 39 41 37 39 39 38 36 33 32 32 42 54 53 47 34 37 40 45 44 48 54 51 54 52 48 39 38 46 52 53 51 54 53 52 50 50 49 51 53
10 9 10 9 9 10 12 13 14 11 39 42 41 40 39 37 35 35 32 31 38 53 57 47 41 40 49 48 45 46 50 47 50 47 46 48 48 50 52 51 50 47 46 46 46 46 46 48 49
13 16 17 13 12 11 12 18 14 12 27 42 42 40 39 39 35 33 35 34 37 54 58 58 50 46 48 50 45 44 50 40 42 44 47 50 51 52 50 48 46 42 40 40 40 39 39 40 40
20 20 21 16 15 13 14 17 16 13 16 24 32 33 37 42 46 43 41 48 54 62 64 67 61 50 56 53 48 43 42 43 44 42 49 46 46 47 46 45 45 44 42 41 41 40 43 46 44
21 22 22 20 17 16 17 15 16 14 14 16 25 46 52 56 58 56 59 62 63 65 73 67 64 63 58 49 46 47 38 40 45 47 48 48 45 44 44 43 41 41 40 41 43 46 47 49 45
16 23 24 19 15 14 18 19 20 19 26 43 50 53 52 52 50 52 46 42 51 59 51 47 44 46 42 40 39 39 47 46 48 48 46 45 45 44 43 42 42 41 42 45 45 48 49 46 59
22 26 25 21 19 16 23 22 22 29 41 47 50 52 52 53 52 53 48 45 44 43 43 40 38 37 40 40 43 43 44 47 48 48 48 47 46 46 45 43 40 41 42 40 42 50 66 74 79
35 32 29 25 23 22 24 27 35 37 40 41 45 48 50 53 55 53 52 46 43 43 41 40 39 38 38 38 39 39 40 43 50 52 50 51 50 49 46 41 52 54 60 69 74 80 81 82 78
38 28 27 26 31 29 22 40 30 38 41 40 44 52 55 52 54 52 51 45 41 40 41 41 42 43 43 44 43 45 48 54 56 53 52 52 53 48 41 51 61 60 62 66 72 78 79 79 91
30 25 27 27 33 37 38 41 33 38 46 47 49 51 54 57 55 58 51 44 42 42 41 43 42 42 45 47 49 52 55 55 55 54 54 54 49 46 48 54 54 57 68 74 74 71 80 91 89
22 29 44 40 45 62 47 44 44 43 43 44 44 48 51 55 57 55 49 46 45 44 44 45 44 43 46 46 51 52 55 56 56 56 54 49 49 54 57 56 52 66 79 80 84 91 91 81 82
31 49 70 68 78 69 51 57 53 45 38 40 50 52 50 50 54 58 53 50 48 47 47 46 46 51 51 51 52 53 53 53 52 49 48 47 51 59 58 50 59 72 65 64 64 77 76 72 79
34 44 73 65 71 63 42 55 52 44 43 44 44 46 43 46 49 53 51 52 48 49 49 48 47 48 48 50 50 48 47 47 46 48 51 54 60 58 50 46 59 66 69 67 68 73 71 73 78
34 41 36 62 68 77 57 45 36 39 42 42 41 39 44 50 55 59 52 49 48 45 42 41 41 44 44 44 45 44 43 41 43 46 48 53 58 50 48 51 54 58 62 58 66 63 62 59 57
26 28 52 67 58 54 51 52 62 51 47 43 42 50 55 52 54 58 51 49 47 47 46 43 44 43 45 44 43 42 42 40 40 44 49 54 55 48 51 55 53 49 40 42 45 48 55 60 56
38 42 44 47 68 72 79 55 38 48 52 50 54 56 56 58 59 59 53 47 43 40 37 39 41 41 40 38 41 42 40 38 40 44 47 52 53 50 54 51 46 38 38 39 42 44 50 56 59
28 36 47 71 46 81 81 58 42 48 48 47 53 54 54 53 56 57 53 49 42 38 35 37 33 34 35 38 41 40 38 38 40 48 49 53 56 55 53 53 40 37 40 42 43 48 57 54 52

GFSSGP_925_rhum_027.txt.gz
RH
6 5 13 16 20 26 26 21 30 39 52 47 48 54 68 82 74 75 88 95 84 90 87 79 74 75 75 74 77 80 79 78 77 73 68 65 66 63 49 45 48 48 56 77 50 41 46 48 49
7 18 17 20 24 28 35 26 43 45 46 41 47 58 66 91 87 98 96 98 92 94 85 81 77 75 75 75 78 78 75 70 66 64 64 61 50 43 40 36 29 24 26 28 27 26 27 29 29
11 15 16 22 28 26 31 30 47 41 38 38 42 39 48 92 88 88 93 95 97 94 86 83 78 74 72 71 70 70 68 66 61 55 50 44 41 37 35 31 24 22 23 24 25 26 27 28 28
19 13 15 18 21 19 24 27 40 43 40 38 44 50 42 62 82 90 93 97 99 96 88 85 76 71 69 67 67 60 58 54 50 46 44 40 36 36 34 29 25 23 23 25 26 27 28 27 27
20 18 18 19 18 28 25 30 36 45 44 42 40 49 58 92 88 91 99 99 92 94 88 78 66 58 55 57 55 51 47 46 45 43 38 34 37 35 40 34 34 30 34 36 46 49 47 43 31
18 19 21 32 28 31 23 41 44 44 42 44 51 50 55 99 95 100 94 91 85 76 72 60 50 46 44 43 42 43 43 43 42 37 44 49 44 50 54 53 50 50 51 50 50 53 52 50 49
18 19 18 18 36 31 28 18 44 41 45 46 39 53 63 76 94 90 86 78 62 52 45 40 36 37 38 39 39 40 39 38 37 48 55 56 55 57 58 57 52 52 52 50 47 48 48 48 48
19 17 16 16 36 42 23 18 36 45 49 35 35 54 80 58 88 83 66 50 46 37 32 37 35 31 32 32 34 33 34 38 56 60 61 61 61 62 62 61 55 54 51 48 45 48 48 48 49
14 21 20 15 33 34 25 17 18 32 44 39 39 40 50 62 73 71 63 58 46 41 41 45 40 30 23 28 31 44 54 58 63 65 64 64 62 63 62 60 54 54 51 47 48 49 50 48 46
19 24 18 14 14 20 15 30 34 42 47 52 48 42 49 60 64 59 58 63 51 48 49 49 45 41 32 36 48 57 62 62 65 67 63 63 66 64 61 58 56 57 53 51 51 51 52 49 47
15 14 8 9 10 10 12 22 24 48 50 47 44 47 48 56 55 48 45 43 41 47 52 51 50 45 46 43 52 56 60 62 62 64 63 62 64 63 60 57 53 54 53 52 51 50 52 54 54
8 7 8 8 9 9 11 11 30 22 43 42 37 40 45 48 48 48 47 47 49 51 50 49 51 49 49 52 50 53 56 62 63 64 61 58 58 55 54 52 54 55 54 55 57 56 53 50 48
8 7 9 10 9 8 9 11 12 14 45 40 36 37 40 40 41 41 39 43 51 55 52 50 52 54 51 53 52 54 54 60 65 63 59 54 54 53 53 54 52 51 53 52 52 50 47 45 44
8 8 8 9 10 9 12 11 12 28 48 42 37 37 37 37 36 37 40 43 49 52 51 50 52 52 49 49 49 51 53 57 64 61 59 55 53 54 54 54 52 52 49 47 44 42 42 41 41
10 10 10 9 10 10 13 13 15 29 46 43 39 38 39 36 35 36 37 43 47 50 48 50 57 50 47 50 50 54 55 58 55 62 57 52 55 60 60 55 49 46 44 42 41 40 38 37 38
14 17 17 12 12 13 12 16 14 44 48 48 46 44 44 46 47 39 37 37 47 51 54 61 59 57 59 54 53 56 57 51 57 58 58 61 60 53 49 47 47 45 42 41 41 42 41 41 42
23 20 18 17 13 14 12 14 15 35 48 51 50 47 54 64 67 67 53 43 46 62 67 70 65 68 66 68 55 49 48 50 50 57 54 50 47 46 44 43 42 41 41 40 40 40 41 40 40
19 21 21 20 17 16 16 17 16 18 32 37 65 68 66 64 64 63 72 75 81 82 80 79 80 75 58 59 46 43 47 49 49 49 47 45 44 44 43 43 42 41 38 36 34 35 34 42 70
17 23 23 20 17 18 18 25 37 30 52 68 68 65 64 64 62 66 67 79 83 81 75 75 75 65 46 44 45 45 49 47 48 47 46 46 46 46 46 45 43 42 42 57 65 72 72 74 76
25 26 24 22 24 21 26 38 51 53 59 62 63 62 62 64 61 60 56 57 55 52 46 42 40 39 40 41 44 46 48 49 48 48 47 48 49 50 48 44 41 37 34 45 62 72 78 78 83
36 31 29 25 26 25 27 36 51 49 55 54 59 60 57 58 61 65 65 52 46 41 37 37 37 37 38 40 40 45 51 53 52 52 52 53 53 50 43 36 40 42 42 44 61 70 70 81 84
35 29 27 27 28 31 25 49 44 44 52 55 61 66 64 60 66 64 64 54 44 41 40 40 40 41 40 40 39 40 42 52 58 54 55 55 51 46 40 42 48 49 50 65 70 73 77 83 88
30 28 28 29 37 39 43 50 44 47 55 56 59 64 63 62 59 65 56 49 48 49 47 46 47 48 48 47 46 46 50 53 55 55 55 51 48 46 46 50 52 46 62 71 68 71 78 77 78
23 35 46 52 49 63 50 45 52 54 54 56 54 57 58 60 59 55 52 50 52 52 47 46 48 50 49 48 51 52 53 56 56 53 48 44 44 44 49 53 50 50 62 60 66 69 76 74 71
35 48 69 69 76 71 49 56 53 44 44 48 58 58 58 60 63 64 60 58 56 55 52 48 47 48 50 51 53 53 53 53 48 44 42 41 42 43 49 54 42 44 61 70 69 70 67 64 61
37 43 73 59 71 63 48 60 56 50 49 49 50 54 55 55 56 60 61 58 54 51 50 50 51 50 52 51 51 49 45 44 43 42 42 43 45 49 56 50 44 50 57 62 65 67 62 66 60
35 45 40 70 72 79 64 48 43 46 53 51 51 50 54 59 65 65 59 53 48 45 44 46 48 53 55 51 47 44 43 43 42 43 46 45 49 55 57 50 51 54 56 58 64 65 66 70 64
28 35 55 68 57 56 54 59 67 54 56 52 55 62 64 65 64 64 57 50 49 47 42 41 45 46 44 40 36 39 43 44 42 43 43 46 48 56 56 55 60 59 49 40 43 43 46 48 49
39 41 50 54 70 72 77 60 42 53 55 56 64 65 64 64 65 64 54 48 45 40 35 39 44 40 37 38 39 42 44 44 43 44 44 48 54 67 62 66 65 73 47 40 41 42 43 49 56
32 38 45 62 45 83 79 60 39 53 55 57 59 60 65 68 63 60 54 46 41 40 37 40 38 37 35 42 47 47 44 42 44 52 54 60 67 67 62 73 82 85 56 43 42 42 49 56 54

GFSSGP_925_rhum_030.txt.gz
RH
6 6 13 19 19 24 25 22 27 43 57 56 62 68 87 91 74 72 96 93 83 89 88 84 78 78 75 76 78 78 74 70 67 64 60 58 55 43 40 34 27 36 69 72 48 34 31 31 32
8 18 18 23 23 26 32 22 42 51 59 65 65 66 75 96 86 96 96 96 88 89 89 86 83 77 78 79 77 71 67 63 62 60 55 47 41 37 32 25 24 26 37 49 47 30 28 27 27
11 18 18 25 29 25 26 36 49 54 42 41 45 44 64 91 88 92 98 99 92 91 88 88 81 79 78 72 65 63 61 60 56 47 43 40 34 35 30 25 24 25 26 27 29 29 28 27 27
18 15 18 20 22 20 21 43 42 52 41 41 46 54 50 80 84 95 99 97 91 94 91 86 80 72 65 62 60 60 57 49 43 41 37 34 36 33 28 27 26 27 32 44 48 48 46 34 43
20 21 22 20 19 26 24 40 51 46 45 46 45 61 68 98 90 98 99 99 98 96 92 82 72 66 60 58 59 54 45 42 41 37 35 38 36 44 41 42 44 48 49 49 51 51 50 51 51
18 21 24 48 39 32 40 44 53 45 47 49 56 60 74 99 100 98 99 96 100 95 85 76 68 58 54 55 46 42 42 40 37 36 46 42 50 54 52 50 51 52 49 46 48 48 49 50 50
17 21 22 54 48 34 28 41 48 46 50 46 44 73 88 96 99 100 98 99 96 83 71 63 58 52 46 41 40 42 42 40 40 52 54 53 57 58 57 53 52 51 48 46 47 46 46 48 48
22 20 21 23 50 46 24 36 45 45 46 36 51 92 94 81 100 100 100 93 84 72 56 46 42 40 40 39 40 42 42 39 53 58 58 59 60 60 61 57 54 53 52 51 51 51 49 47 45
16 21 22 18 42 42 29 30 28 39 41 43 42 66 70 88 100 100 100 97 80 60 41 40 39 39 32 36 37 40 41 56 59 61 62 63 63 64 62 64 60 57 54 51 51 52 52 50 49
22 24 18 15 30 32 28 30 32 46 47 48 54 64 79 94 100 98 93 85 69 48 47 46 39 27 30 33 39 49 55 62 64 64 64 65 66 66 65 65 62 58 53 51 51 51 52 52 52
18 20 13 9 14 23 24 34 37 50 50 49 59 70 76 85 79 77 69 57 44 43 49 48 41 31 31 38 49 57 60 62 66 67 66 64 65 66 61 59 52 54 53 53 55 56 54 51 49
14 12 9 9 12 17 27 24 45 35 38 43 53 60 66 70 63 57 53 49 48 48 48 49 50 44 38 46 52 57 60 63 66 66 62 59 61 57 54 53 56 56 56 56 54 52 49 45 44
11 7 10 9 10 13 11 18 39 21 48 41 49 52 57 55 53 43 35 39 45 47 50 51 53 49 50 50 50 57 60 63 65 68 65 61 60 59 59 61 61 57 52 47 44 42 40 38 36
9 9 9 10 10 11 13 14 15 33 48 44 48 51 53 51 50 48 47 43 45 47 50 54 55 60 59 59 65 62 61 64 67 72 72 66 66 64 64 63 54 49 45 44 43 42 41 41 40
10 9 10 11 10 13 12 12 16 46 47 46 45 46 47 44 42 43 44 47 46 49 53 57 61 69 68 67 65 69 72 70 77 78 70 66 67 65 59 51 47 45 43 42 41 40 39 38 35
15 17 14 11 11 14 11 15 14 56 49 52 48 46 51 60 56 44 39 39 44 52 58 64 68 65 64 64 65 61 63 67 72 68 64 60 55 50 48 44 42 42 42 41 40 37 35 35 37
22 20 18 15 13 14 13 14 19 56 53 59 58 58 64 66 64 62 45 39 40 57 66 72 78 81 84 76 68 59 58 59 60 55 51 47 46 44 44 44 44 44 44 42 41 41 53 60 64
18 20 20 19 16 15 16 29 45 30 57 56 68 73 72 72 73 72 88 69 68 83 81 84 83 84 90 76 61 54 51 51 49 48 46 45 45 45 45 47 47 46 38 29 29 38 43 66 77
19 20 21 22 18 24 51 61 64 48 63 73 76 78 78 76 70 76 89 95 92 92 86 84 85 73 63 54 48 48 50 48 46 46 46 46 46 48 50 46 38 29 26 31 32 40 56 62 68
26 27 25 24 26 28 48 55 65 66 67 71 77 77 75 71 71 71 64 70 73 78 81 84 73 60 49 44 42 42 44 47 47 48 48 50 51 51 48 40 31 32 35 31 35 54 60 65 78
35 30 29 27 25 29 32 42 60 55 66 67 69 67 65 68 73 73 70 58 58 55 47 46 46 41 38 36 38 42 46 50 52 52 52 53 53 49 43 35 36 41 39 44 58 60 65 77 72
32 30 28 30 28 38 29 42 50 56 66 69 69 70 68 66 71 73 67 55 45 44 40 39 40 41 42 43 42 40 45 53 56 54 55 54 47 46 39 38 41 45 35 38 47 58 58 75 75
30 32 32 33 42 41 45 50 53 62 69 70 70 69 68 72 73 68 60 52 45 44 45 43 43 43 43 43 44 46 49 53 54 55 54 49 42 40 40 43 46 48 41 54 63 70 74 75 75
30 41 49 55 52 63 52 46 52 65 63 64 63 67 68 68 61 62 57 54 51 48 46 46 47 48 49 49 49 51 52 54 56 53 48 45 43 40 41 47 52 50 45 57 64 63 61 65 67
41 50 70 70 76 72 50 53 49 46 52 58 64 68 66 66 69 69 65 62 61 57 49 49 53 51 52 53 54 55 53 49 44 41 39 42 42 40 41 46 52 51 43 61 69 71 72 70 71
39 44 73 57 77 68 50 61 53 53 47 53 58 60 64 68 67 66 64 62 59 55 53 54 52 51 53 53 52 46 42 42 41 42 44 44 43 44 47 51 58 49 52 65 70 73 65 59 56
39 47 43 72 72 80 68 53 50 56 59 59 60 60 64 63 65 67 63 60 60 55 49 50 48 52 55 50 42 41 44 48 51 52 49 48 46 47 53 64 64 56 70 74 78 71 63 56 57
29 42 53 68 56 53 58 61 70 62 64 60 60 63 62 68 71 71 64 59 55 49 43 44 52 51 46 44 47 50 50 50 49 47 45 48 53 58 65 71 64 64 74 70 69 55 46 47 44
41 44 53 58 70 68 75 68 51 59 59 61 62 64 71 73 72 68 58 52 45 38 36 42 46 42 38 41 46 49 47 40 33 36 37 32 34 42 50 66 66 72 70 76 65 54 46 47 54
34 38 43 59 42 84 79 60 44 57 56 58 64 68 71 74 69 63 54 46 43 41 39 41 37 37 35 41 45 33 31 31 35 38 44 50 47 47 53 68 72 74 83 76 62 56 54 61 61

GFSSGP_925_rhum_036.txt.gz
RH
17 14 11 14 16 16 17 16 21 40 53 44 40 42 48 50 50 66 74 75 75 81 88 91 85 90 78 73 72 74 76 73 69 63 58 51 46 39 30 40 48 65 69 63 45 26 27 32 36
12 16 14 12 16 16 15 16 24 44 50 45 46 41 39 55 61 75 78 85 82 83 80 83 81 89 81 78 80 81 75 67 58 56 45 40 34 28 31 37 46 61 73 72 60 38 47 47 46
16 16 11 10 11 14 17 24 41 43 37 41 52 48 53 63 68 77 84 91 85 82 78 86 84 88 81 83 84 77 68 63 59 45 37 39 31 30 33 38 50 62 72 72 54 50 49 47 44
10 10 10 11 11 12 24 38 39 38 39 36 54 69 69 69 76 79 82 90 84 81 78 90 85 88 89 84 79 70 64 55 45 41 47 39 31 31 35 47 57 68 66 55 51 49 48 46 45
12 9 10 10 14 18 20 34 34 38 54 37 36 43 60 80 76 84 96 89 81 77 86 98 85 93 91 86 74 63 51 47 46 45 40 36 38 44 49 51 52 51 50 50 48 47 46 45 45
9 10 9 12 20 28 24 31 32 38 34 30 37 43 68 85 88 92 96 88 83 88 91 98 89 92 89 74 60 50 49 49 43 41 46 47 49 51 52 50 50 50 49 49 49 48 46 45 45
9 8 10 20 29 35 37 32 32 31 29 31 36 41 83 80 86 89 89 90 95 94 91 88 89 93 77 62 54 50 49 45 46 48 54 53 52 53 54 54 55 54 53 52 51 51 48 47 43
11 10 19 24 31 42 35 32 28 30 29 34 35 50 90 81 95 93 91 90 100 96 74 67 70 74 75 76 54 50 48 51 54 55 58 58 58 56 57 58 56 53 51 50 48 49 48 49 46
12 12 17 28 35 37 28 31 28 26 34 36 40 46 58 93 95 95 99 100 99 87 68 66 67 69 64 63 71 57 53 61 61 63 61 67 64 68 67 59 54 49 48 48 48 49 49 49 46
12 14 13 13 19 22 26 22 28 30 31 37 45 58 78 97 94 92 92 99 95 71 76 82 74 74 72 62 69 68 67 68 71 71 75 69 77 75 70 61 54 51 52 52 52 52 50 46 41
12 14 10 10 16 17 21 23 24 27 30 30 37 66 85 91 89 84 76 65 53 56 58 61 73 72 64 60 63 61 68 73 78 84 80 84 83 85 76 70 64 67 61 57 55 51 49 54 50
15 11 10 8 17 18 20 21 28 27 25 26 28 54 76 78 77 64 46 39 41 49 51 58 64 72 72 62 63 70 67 75 76 82 84 86 79 81 72 64 65 63 60 59 54 52 56 54 51
14 10 9 9 14 18 19 23 26 27 28 32 43 57 56 53 48 34 32 35 42 44 50 58 63 66 70 70 72 75 78 78 87 89 95 83 76 78 70 69 61 58 56 54 52 50 49 48 46
11 9 9 9 12 19 21 27 28 30 33 44 53 48 37 32 29 30 32 34 41 45 54 65 67 69 67 74 84 88 90 94 98 91 90 80 82 77 70 64 58 55 53 52 51 53 50 47 46
9 10 11 13 16 17 18 23 17 29 34 43 40 36 31 24 26 27 29 33 41 48 60 71 82 80 84 85 83 74 75 79 81 91 90 86 83 74 66 61 56 56 56 54 50 48 40 41 38
9 9 14 13 15 13 16 15 18 30 30 33 32 33 33 29 29 29 30 32 37 47 63 84 91 88 81 72 67 71 74 81 79 85 80 72 71 64 60 58 59 61 53 47 40 38 37 32 35
12 10 10 12 11 14 11 13 22 32 28 34 34 34 33 30 32 37 46 39 37 50 74 90 94 94 94 84 70 66 72 79 72 69 67 67 58 58 60 58 56 50 43 43 39 34 39 37 38
13 10 10 10 11 11 11 20 22 34 29 31 33 33 33 34 35 48 55 49 47 60 79 90 95 89 70 58 75 83 79 64 60 62 61 60 62 63 56 51 49 41 37 37 42 43 40 37 43
10 14 12 12 15 13 15 18 22 30 34 32 33 35 36 38 45 56 67 71 67 81 92 90 92 85 83 65 99 82 64 64 60 57 61 60 60 53 45 40 43 41 42 45 44 37 35 37 44
14 15 18 19 16 17 22 24 28 28 33 33 34 35 38 42 45 59 68 77 84 79 80 96 91 84 92 86 70 55 54 54 54 55 61 60 53 48 43 43 40 44 37 44 48 50 44 35 40
20 18 21 18 20 20 22 25 32 36 39 42 42 37 38 41 48 58 68 73 82 84 87 85 84 80 66 56 57 59 59 58 53 54 54 56 53 49 47 47 45 47 47 40 48 48 50 46 41
22 22 20 20 19 19 20 18 26 34 34 41 44 46 45 48 52 58 60 70 73 72 71 62 59 57 57 58 49 48 42 44 48 53 55 48 54 51 45 47 52 53 51 51 49 45 60 55 49
27 22 21 20 20 23 22 20 21 34 36 37 42 46 50 52 52 48 44 49 53 63 62 54 54 53 56 56 54 54 52 55 55 56 51 48 49 54 52 51 53 53 53 54 61 64 60 58 58
28 27 27 26 25 29 22 25 13 17 25 37 43 50 51 49 45 40 37 40 44 49 54 55 51 52 56 56 59 57 56 52 47 43 41 36 40 44 47 54 60 62 64 66 66 66 69 69 68
26 24 25 33 35 30 34 30 16 26 29 34 45 49 48 45 40 36 37 40 46 51 55 54 51 54 59 59 57 56 51 46 42 45 42 48 43 46 48 58 58 59 60 64 68 71 69 70 69
25 23 25 26 32 29 34 33 26 32 29 33 37 42 42 41 37 34 37 41 44 48 51 50 49 52 55 56 53 52 50 46 45 49 54 52 51 50 51 48 48 47 50 55 62 70 67 62 65
29 27 30 42 56 47 25 27 26 33 33 36 39 40 40 36 36 36 40 43 46 49 53 54 51 51 57 59 58 57 53 52 51 53 50 45 44 41 38 44 42 42 46 54 59 66 68 60 56
28 27 34 34 43 30 20 23 17 35 35 36 41 41 36 33 35 38 42 49 51 50 56 56 53 53 48 48 56 51 51 49 46 44 43 43 41 41 42 43 45 49 53 57 64 68 76 69 63
34 32 31 28 35 26 23 14 25 27 30 33 36 36 33 34 38 40 44 50 51 48 47 49 54 54 52 52 53 50 43 42 42 41 42 43 47 46 48 52 57 58 59 68 89 95 93 66 63
27 28 27 27 30 42 42 20 21 28 31 32 31 33 32 36 38 42 47 48 45 41 42 49 51 47 46 48 43 40 37 39 42 42 44 48 52 52 57 64 64 64 73 78 69 72 76 70 65

GFSSGP_925_rhum_039.txt.gz
RH
15 17 8 8 13 13 14 12 11 30 36 35 31 34 39 49 59 67 55 65 64 69 74 84 69 66 65 63 64 70 75 74 70 66 59 48 39 41 45 46 51 66 67 61 54 50 43 42 42
15 8 6 10 15 14 12 12 20 52 53 36 36 32 39 59 54 66 62 64 67 71 74 84 78 74 71 72 75 77 74 70 63 56 50 41 38 46 40 44 54 72 75 65 58 46 42 39 39
13 8 9 10 13 14 14 22 38 35 30 32 33 33 42 62 54 66 73 73 75 70 72 88 85 78 77 79 80 78 72 63 56 55 49 39 42 38 41 56 66 74 74 70 53 46 44 41 39
9 6 8 12 12 9 11 46 40 31 30 29 33 39 44 60 57 66 74 77 78 78 86 79 87 85 89 89 90 76 64 57 51 49 47 43 42 39 53 57 60 61 62 49 44 42 40 39 35
8 8 10 11 11 10 11 27 26 36 32 31 28 41 44 56 49 74 75 74 78 83 91 89 85 85 92 90 77 66 61 51 48 48 46 42 42 50 52 51 49 49 47 48 46 44 42 41 39
7 7 11 12 10 16 16 26 23 36 27 28 30 33 51 57 59 61 85 83 90 86 90 97 90 91 87 79 67 62 54 48 46 46 45 46 53 52 49 48 49 49 50 50 48 45 43 41 38
10 9 11 9 17 23 26 22 34 29 23 25 26 47 54 62 65 78 82 73 99 89 90 89 94 94 82 71 67 59 51 47 50 53 51 52 54 53 50 51 52 52 51 50 49 46 44 43 40
7 8 10 11 26 28 25 23 24 24 27 22 25 37 57 56 75 89 85 89 83 83 81 76 80 84 89 80 64 54 49 53 54 58 57 52 52 51 55 60 52 52 51 49 48 48 46 44 40
8 11 10 26 31 36 29 26 21 21 23 27 33 35 47 67 78 82 90 86 81 66 52 52 54 58 56 63 66 55 53 60 58 62 60 61 60 62 72 67 53 49 48 48 49 49 48 42 46
9 10 10 22 38 74 32 25 20 22 20 22 36 42 58 71 76 82 77 76 70 54 53 58 59 57 52 48 63 63 67 69 67 66 68 64 63 67 66 57 52 50 50 51 50 48 45 44 43
10 12 11 10 17 42 20 19 19 20 25 26 32 49 71 71 61 60 59 62 47 51 55 57 64 66 54 55 53 54 60 64 68 71 68 73 66 68 66 61 57 59 54 52 50 49 48 54 52
10 9 10 9 10 18 21 17 20 25 48 18 22 48 72 60 55 50 48 40 36 43 46 50 56 59 51 52 51 54 55 60 60 67 76 71 67 71 64 53 55 57 52 57 52 49 53 51 50
10 10 8 10 12 16 16 19 19 23 18 16 30 50 54 50 47 40 29 30 36 38 42 45 54 59 65 58 62 58 63 71 81 86 93 82 71 71 63 62 55 56 53 52 51 50 50 48 45
10 10 9 12 15 16 18 19 18 23 21 26 40 44 42 40 34 26 26 31 36 36 46 51 53 59 61 67 72 78 80 86 95 99 89 78 76 78 66 61 56 54 56 56 53 52 46 40 39
8 10 10 10 13 16 17 24 32 23 22 31 38 35 31 26 22 23 27 33 36 38 50 58 65 64 74 77 86 87 86 81 88 88 88 96 88 79 68 63 61 61 57 50 44 41 38 36 32
10 10 16 12 13 14 16 19 20 21 24 26 25 24 20 18 18 22 27 31 37 43 54 64 74 81 88 93 86 84 91 93 80 95 98 90 77 69 62 62 62 61 50 45 42 36 35 35 33
10 12 13 14 11 12 15 13 16 18 20 22 22 21 19 18 18 22 24 27 34 46 65 79 85 88 77 65 66 74 81 72 77 78 74 69 68 65 60 58 55 47 40 39 40 35 33 33 31
14 13 10 10 10 10 10 12 13 17 19 22 23 24 24 23 21 26 33 30 30 45 73 77 83 94 87 60 54 71 73 88 70 65 64 63 64 61 52 50 54 44 40 40 42 42 36 34 32
10 9 8 8 8 9 9 12 16 19 18 21 24 25 25 25 26 37 40 38 36 52 73 77 88 92 82 70 83 87 83 68 62 59 58 60 57 51 48 42 44 44 36 41 44 44 42 39 35
9 12 13 11 9 10 9 12 14 16 17 17 20 24 25 26 33 40 48 47 45 60 76 84 86 91 82 66 71 72 62 58 52 53 58 56 52 47 41 47 42 42 40 38 39 45 46 43 37
12 14 20 14 13 11 12 14 18 18 18 20 20 20 23 28 35 40 47 56 62 68 70 75 77 72 67 66 56 51 50 51 51 52 56 54 50 45 44 44 44 44 43 40 44 46 45 43 43
18 16 14 14 17 17 13 17 16 20 24 28 29 28 25 29 31 39 48 58 64 66 68 62 58 58 56 49 46 46 40 40 40 44 46 50 52 48 44 40 45 47 47 47 45 43 50 48 45
24 17 15 13 13 16 16 14 22 18 22 26 26 31 31 31 37 42 46 58 61 60 58 51 51 47 47 47 43 46 44 47 49 48 51 51 46 44 44 45 48 51 49 48 50 51 57 55 53
19 19 18 16 15 25 16 16 14 18 17 20 25 30 33 37 40 38 44 43 43 49 50 47 44 44 48 48 50 50 50 46 46 46 42 37 34 34 37 41 45 50 48 46 46 47 48 56 66
18 19 30 32 26 28 21 20 14 15 20 18 28 32 37 39 38 34 35 36 42 47 49 48 44 45 49 51 52 51 50 46 41 41 37 37 36 37 40 48 46 43 42 43 44 45 48 63 70
20 18 26 29 25 21 22 18 19 21 22 22 27 31 36 38 37 31 30 32 38 45 48 45 44 46 51 52 48 48 46 41 41 38 42 40 41 40 40 39 40 40 40 40 42 44 47 55 70
20 21 21 26 46 37 16 13 22 22 24 26 30 34 37 37 34 29 30 32 37 42 46 45 44 45 48 48 49 50 46 43 38 43 43 38 40 37 33 39 40 40 42 45 47 46 47 61 68
22 19 26 24 36 29 14 13 16 24 23 26 31 35 35 33 31 29 30 35 38 42 47 48 46 46 48 48 51 46 44 43 40 39 39 40 40 40 40 40 42 47 49 48 48 56 64 66 72
26 25 22 22 26 31 22 15 13 16 19 24 27 30 32 31 29 30 32 37 40 44 50 52 46 45 48 48 49 45 42 39 38 38 39 38 41 41 40 43 49 50 48 62 72 68 65 63 67
20 20 22 33 25 28 38 23 13 16 16 20 23 26 29 28 27 29 33 38 43 46 46 47 43 44 43 45 47 48 38 34 36 38 37 39 44 43 44 48 52 54 61 64 67 71 76 69 67

GFSSGP_925_rhum_042.txt.gz
RH
15 15 19 12 12 14 16 13 14 36 45 32 29 41 56 60 67 84 72 66 70 79 78 76 88 88 78 72 70 74 76 73 68 63 59 50 47 50 52 50 53 56 64 68 58 42 37 36 36
19 16 9 7 14 17 14 27 49 46 42 32 30 33 47 77 58 66 65 67 66 78 85 81 72 74 71 74 76 78 72 66 60 53 46 47 52 52 49 54 57 60 71 71 58 36 33 32 28
15 11 8 9 12 18 19 44 48 33 29 31 35 33 44 72 58 65 73 73 65 70 83 82 72 71 74 78 82 74 64 57 55 49 55 53 44 45 54 58 59 70 80 72 50 38 35 33 30
11 8 6 13 14 11 22 39 31 30 29 28 30 44 45 44 48 64 78 79 71 77 80 78 76 74 81 85 77 66 57 50 51 49 40 35 45 57 56 59 66 66 51 43 39 38 36 34 32
9 8 9 11 12 10 11 26 28 29 29 28 28 42 52 49 67 71 74 78 79 82 80 81 78 83 87 81 70 61 53 52 48 40 34 40 48 49 49 49 46 44 43 41 39 38 36 34 32
10 7 13 14 11 10 12 23 30 36 53 74 27 35 44 46 63 77 84 94 93 88 82 80 87 91 88 70 68 60 52 45 45 37 40 48 47 45 44 46 44 42 41 42 43 43 41 37 33
10 10 12 12 12 15 22 34 49 56 42 50 23 51 59 47 56 78 80 94 82 90 85 86 90 90 78 72 63 54 47 43 42 45 46 47 46 46 46 44 44 44 45 45 46 44 43 39 38
7 9 12 10 10 36 60 55 53 58 45 20 19 34 52 63 74 66 81 79 76 82 84 84 88 89 74 64 55 52 47 46 51 48 48 50 50 51 62 56 46 45 45 45 46 45 43 42 44
6 11 13 12 20 59 52 69 47 24 22 28 28 42 48 72 88 62 65 87 94 95 80 79 73 62 59 58 58 49 48 50 53 53 51 58 60 67 67 55 47 46 47 47 47 46 43 47 50
9 12 11 18 42 58 57 72 52 19 20 27 37 51 66 77 74 80 89 83 87 82 65 68 68 72 66 62 61 53 51 54 58 54 66 71 72 68 65 48 43 50 49 56 52 50 50 54 52
9 12 8 14 24 39 54 52 34 21 33 35 48 58 69 68 75 78 72 70 78 58 62 62 57 52 55 52 60 58 63 69 69 70 71 67 67 62 65 60 57 63 55 61 53 53 54 53 52
10 9 8 12 25 26 26 25 32 29 38 58 56 58 65 61 58 60 61 53 50 53 57 65 59 48 52 54 56 56 62 63 66 71 72 72 70 68 60 58 54 55 53 54 54 51 52 51 47
9 8 8 9 10 16 19 28 30 29 21 44 52 60 56 44 44 48 51 37 44 45 51 56 56 55 51 53 52 66 67 68 74 80 76 72 73 71 64 63 58 56 54 55 54 51 49 43 38
8 8 10 11 14 14 21 32 31 22 19 43 50 54 46 40 36 33 27 34 37 41 48 54 58 62 60 66 70 76 76 80 87 87 79 75 81 77 68 62 57 56 57 52 48 42 38 38 37
10 11 11 12 14 21 21 26 22 24 23 36 40 38 37 32 28 25 32 35 38 43 48 52 58 69 73 77 80 75 77 77 68 71 71 87 87 76 68 62 59 60 56 48 45 39 37 36 35
10 11 18 15 13 14 24 36 21 21 25 35 37 35 33 29 24 25 33 35 38 48 53 61 71 80 82 82 80 64 60 58 74 74 75 82 79 73 62 59 57 47 45 42 42 38 35 34 34
12 17 20 19 11 14 22 27 18 17 22 26 26 26 27 24 21 25 30 34 39 49 60 72 82 87 80 72 69 69 67 63 67 63 73 71 66 62 60 59 52 44 42 41 41 43 41 40 39
22 16 15 16 12 11 20 18 13 16 21 24 23 21 19 20 19 23 26 32 40 58 70 81 88 85 72 71 71 71 70 66 60 68 65 58 61 58 54 50 52 44 39 41 43 46 46 45 44
14 14 14 9 9 10 10 12 11 15 18 23 22 22 21 21 20 27 28 27 41 70 81 83 92 92 84 80 75 81 74 75 67 62 58 60 60 53 46 44 44 44 43 40 40 43 48 48 46
12 18 16 8 8 9 10 10 13 13 16 21 24 26 26 25 23 34 35 35 52 72 74 87 86 91 88 75 68 71 72 68 61 58 59 59 54 48 46 49 46 44 43 42 45 47 48 48 47
12 27 25 22 11 7 10 10 14 14 14 16 20 22 24 26 32 38 40 42 42 70 77 85 89 86 82 60 70 71 61 57 56 56 59 57 53 48 46 45 43 45 48 48 48 48 49 54 52
22 24 19 19 18 17 23 26 16 16 16 17 18 21 23 24 32 36 42 48 54 71 76 80 80 76 71 64 56 54 51 51 50 52 56 55 52 50 46 43 46 48 51 50 51 51 49 54 56
28 24 24 14 14 30 29 35 33 19 21 19 22 22 23 25 30 35 42 54 57 66 69 76 69 60 57 52 46 47 46 46 46 47 54 54 51 48 45 43 44 48 52 52 51 53 54 55 57
23 24 19 16 20 40 38 42 32 28 32 33 22 25 26 28 30 35 52 58 59 67 69 59 54 52 49 46 45 46 47 46 48 48 50 45 41 36 36 42 48 50 44 44 43 44 46 47 52
16 18 36 82 80 40 13 18 16 32 23 21 24 26 29 32 37 40 45 51 53 54 55 52 47 45 47 47 50 51 52 49 44 42 46 39 38 38 40 44 42 41 42 42 43 44 46 48 50
29 19 58 60 78 37 20 22 20 19 17 18 22 25 32 38 41 39 42 42 46 50 50 46 44 45 48 50 52 51 49 45 43 45 42 42 40 41 40 39 39 41 41 42 45 48 50 49 59
27 22 21 25 48 56 21 12 22 19 21 22 25 29 37 38 38 36 37 40 44 47 49 46 43 44 50 51 50 48 46 43 43 42 44 41 41 39 36 40 41 41 45 49 50 53 56 64 67
18 15 28 24 38 38 18 15 33 24 22 23 29 34 37 36 36 34 32 36 39 45 47 47 45 48 50 49 50 50 48 44 42 45 41 40 42 42 41 41 41 46 49 50 62 66 68 64 68
24 25 18 16 28 46 49 23 14 16 18 22 27 32 36 37 36 34 31 33 37 42 47 49 47 47 49 48 52 46 45 45 46 40 38 41 40 43 43 42 45 49 52 60 62 65 65 66 68
17 21 20 56 36 37 52 35 13 15 15 19 22 26 31 33 33 31 31 34 37 42 47 50 48 47 47 48 48 46 46 44 39 37 39 38 43 45 44 45 48 51 56 62 66 68 72 71 69